This demonstration page uses our WeatherBlox Daily Observations layout. Learn more.

41.55636, -103.73856

Hourly Observations for June 6, 2017

Temp ( °F °C ) Dew Point ( °F °C ) Humidity (%) Winds ( mph kmh ) Pressure ( in mb ) Visibility ( mi km ) Precip ( " mm )
12:53 am 00:53 Clear 67 19.4 47 8.3 49 49 N 15 24 29.93 1014 10 16.0934 0 0
1:53 am 01:53 Partly Cloudy 66 18.9 49 9.4 54 54 WNW 8 13 29.96 1015 10 16.0934 0 0
2:53 am 02:53 Mostly Cloudy 65 18.3 49 9.4 56 56 W 6 9 30.01 1016 10 16.0934 0 0
3:53 am 03:53 Clear 61 16.1 49 9.4 65 65 WNW 5 7 30.02 1017 10 16.0934 0 0
4:53 am 04:53 Clear 60 15.6 50 10 70 70 WNW 6 9 30.02 1017 10 16.0934 0 0
5:53 am 05:53 Mostly Sunny 59 15 51 10.6 75 75 WSW 3 6 30.04 1017 10 16.0934 0 0.0254
6:53 am 06:53 Mostly Cloudy 61 16.1 52 11.1 72 72 W 6 9 30.07 1018 10 16.0934 0 0
7:53 am 07:53 Mostly Sunny 67 19.4 53 11.7 61 61 NW 6 9 30.08 1019 10 16.0934 0 0
8:23 am 08:23 Sunny 69 20.6 53 11.7 57 57 N 17 28 30 1016 10 16.0934 0 0
8:53 am 08:53 Sunny 69 20.6 53 11.7 57 57 N 15 24 30.09 1019 10 16.0934 0 0
9:53 am 09:53 Sunny 73 22.8 53 11.7 50 50 N 9 15 30.08 1019 10 16.0934 0 0
10:53 am 10:53 Sunny 73 22.8 52 11.1 48 48 NW 10 17 30.08 1019 10 16.0934 0 0
11:53 am 11:53 Mostly Cloudy 74 23.3 53 11.7 48 48 NNW 8 13 30.08 1019 10 16.0934 0 0
12:53 pm 12:53 Partly Cloudy 74 23.3 52 11.1 46 46 N 7 11 30.07 1018 10 16.0934 0 0
1:53 pm 13:53 Mostly Sunny 76 24.4 53 11.7 45 45 N 9 15 30.06 1018 10 16.0934 0 0
2:53 pm 14:53 Partly Cloudy 76 24.4 52 11.1 43 43 NNE 8 13 30.05 1018 10 16.0934 0 0
3:53 pm 15:53 Partly Cloudy 79 26.1 53 11.7 41 41 NE 10 17 30.04 1017 10 16.0934 0 0
4:53 pm 16:53 Cloudy 77 25 53 11.7 43 43 ENE 12 19 30.05 1018 10 16.0934 0 0
5:53 pm 17:53 Mostly Sunny 77 25 54 12.2 45 45 ENE 15 24 30.03 1017 10 16.0934 0 0
6:53 pm 18:53 Sunny 74 23.3 53 11.7 48 48 ENE 12 19 30.04 1017 10 16.0934 0 0
7:53 pm 19:53 Hazy 71 21.7 53 11.7 53 53 ENE 9 15 30.06 1018 6 9.65604 0 0
8:53 pm 20:53 Clear 65 18.3 53 11.7 66 66 ENE 7 11 30.07 1018 10 16.0934 0 0
9:53 pm 21:53 Clear 63 17.2 53 11.7 70 70 ENE 8 13 30.07 1018 10 16.0934 0 0
10:53 pm 22:53 Clear 60 15.6 52 11.1 75 75 E 6 9 30.08 1019 10 16.0934 0 0
11:53 pm 23:53 Clear 61 16.1 53 11.7 75 75 SSE 5 7 30.09 1019 10 16.0934 0 0

Powered by AerisWeather